KCIKMI Weather Reports


Display with metric or nautical units.
time (UTC)temp
F
wind
direction
speed
MPH
gust
MPH
rain 1hr
in
rain 24hr
in
rain mn
in
humidity
%
barometer
mb
20260503203131 55 215 2.0 8.0 0.00 0.00 0.00 40 1004.9
20260503202528 55 337 2.0 14.0 0.00 0.00 0.00 40 1004.8
20260503202029 55 188 2.0 14.0 0.00 0.00 0.00 39 1004.8
20260503201529 55 269 2.0 14.0 0.00 0.00 0.00 40 1004.9
20260503201028 55 171 3.0 14.0 0.00 0.00 0.00 40 1004.8
20260503200528 55 332 3.0 10.0 0.00 0.00 0.00 41 1004.8
20260503200028 55 1 3.0 10.0 0.00 0.00 0.00 40 1004.7
20260503195527 55 351 3.0 10.0 0.00 0.00 0.00 40 1004.7
20260503195027 55 13 1.0 10.0 0.00 0.00 0.00 40 1004.7
20260503194527 55 339 2.0 10.0 0.00 0.00 0.00 40 1004.7
20260503194028 55 349 3.0 10.0 0.00 0.00 0.00 40 1004.7
20260503193526 55 316 2.0 10.0 0.00 0.00 0.00 40 1004.7
20260503193033 55 313 1.0 11.0 0.00 0.00 0.00 41 1004.8
20260503192525 55 24 4.0 15.0 0.00 0.00 0.00 40 1004.7
20260503192023 55 4 6.0 15.0 0.00 0.00 0.00 40 1004.7
20260503191523 55 336 5.0 13.0 0.00 0.00 0.00 41 1004.8
20260503191023 55 22 3.0 13.0 0.00 0.00 0.00 42 1004.7
20260503190522 55 8 4.0 13.0 0.00 0.00 0.00 42 1004.8
20260503190021 55 114 3.0 10.0 0.00 0.00 0.00 42 1004.7
20260503185520 55 327 2.0 12.0 0.00 0.01 0.00 44 1004.7
20260503185019 55 200 3.0 12.0 0.00 0.01 0.00 42 1004.7
20260503184532 55 156 1.0 11.0 0.00 0.01 0.00 41 1004.7
20260503184020 55 360 1.0 10.0 0.00 0.01 0.00 42 1004.7
20260503183517 55 1 3.0 8.0 0.00 0.01 0.00 43 1004.7
20260503183016 55 6 3.0 8.0 0.00 0.01 0.00 43 1004.7
20260503182515 55 352 2.0 7.0 0.00 0.01 0.00 43 1004.7
20260503182015 55 150 2.0 7.0 0.00 0.01 0.00 44 1004.7
20260503181514 55 306 2.0 11.0 0.00 0.01 0.00 43 1004.8
20260503181014 54 296 3.0 11.0 0.00 0.01 0.00 44 1004.7
20260503180513 54 23 3.0 12.0 0.00 0.01 0.00 44 1004.7
20260503180020 55 30 3.0 12.0 0.00 0.01 0.00 43 1004.8
20260503175510 55 349 2.0 7.0 0.00 0.01 0.00 45 1004.6
20260503175010 55 10 2.0 9.0 0.00 0.01 0.00 45 1004.6
20260503174508 55 335 2.0 12.0 0.00 0.01 0.00 45 1004.7
20260503174106 55 27 3.0 12.0 0.00 0.01 0.00 45 1004.7
20260503173505 55 27 6.0 11.0 0.00 0.01 0.00 44 1004.8
20260503173005 55 28 4.0 11.0 0.00 0.01 0.00 46 1004.7
20260503172504 55 150 4.0 11.0 0.00 0.01 0.00 47 1004.8
20260503172002 55 351 3.0 8.0 0.00 0.01 0.00 49 1004.8
20260503171501 54 3 2.0 11.0 0.00 0.01 0.00 48 1004.8
20260503171100 54 17 5.0 11.0 0.00 0.01 0.00 49 1004.9
20260503170600 53 12 5.0 14.0 0.00 0.01 0.00 50 1004.9
20260503150548 50 344 4.0 14.0 0.00 0.01 0.00 61 1004.8
20260503131043 48 330 4.0 10.0 0.00 0.01 0.00 63 1004.8
20260503130540 48 12 4.0 11.0 0.00 0.01 0.00 64 1004.8
20260503110529 44 38 2.0 4.0 0.00 0.01 0.00 67 1005.6
20260503081510 47 360 1.0 5.0 0.00 0.01 0.00 56 1006.1
20260503081009 47 353 0.0 3.0 0.00 0.01 0.00 57 1006.1
20260503080509 47 353 1.0 4.0 0.00 0.01 0.00 56 1006.2
20260503072504 48 341 1.0 5.0 0.00 0.01 0.00 55 1006.5
20260503072006 48 8 2.0 7.0 0.00 0.01 0.00 54 1006.4
20260503071509 48 7 1.0 7.0 0.00 0.01 0.00 54 1006.2
20260503071003 48 13 2.0 6.0 0.00 0.01 0.00 54 1006.4
20260503070501 48 5 2.0 6.0 0.00 0.01 0.00 54 1006.5
20260503055050 49 15 0.0 6.0 0.00 0.01 0.00 56 1007.3
20260503054549 49 15 1.0 6.0 0.00 0.01 0.00 56 1007.3
20260503054048 49 334 1.0 6.0 0.00 0.01 0.00 56 1007.6
20260503053547 49 2 1.0 6.0 0.00 0.01 0.00 56 1007.8
20260503053046 49 5 1.0 6.0 0.00 0.01 0.00 56 1007.9
20260503052545 50 5 1.0 6.0 0.00 0.01 0.00 56 1007.8
20260503052044 50 34 1.0 6.0 0.00 0.01 0.00 57 1007.9
20260503051543 50 360 1.0 6.0 0.00 0.01 0.00 57 1007.9
20260503051043 50 3 2.0 6.0 0.00 0.01 0.00 56 1008.0
20260503050543 50 28 2.0 6.0 0.00 0.01 0.00 57 1007.9
20260503050042 50 3 2.0 5.0 0.00 0.01 0.00 57 1007.9
20260503045544 50 358 1.0 5.0 0.00 0.01 0.00 58 1007.9
20260503045043 50 5 1.0 5.0 0.00 0.01 0.00 59 1007.8
20260503044539 50 341 1.0 5.0 0.00 0.01 0.00 58 1008.0
20260503044037 50 342 1.0 4.0 0.00 0.01 0.00 59 1008.2
20260503043537 50 353 0.0 5.0 0.00 0.01 0.00 59 1008.3
20260503043041 50 188 1.0 5.0 0.00 0.01 0.00 60 1008.4
20260503042536 50 1 1.0 7.0 0.00 0.01 0.00 61 1008.4
20260503042035 50 8 3.0 8.0 0.00 0.01 0.00 61 1008.3
20260503041535 50 16 1.0 8.0 0.00 0.01 0.00 66 1008.2
20260503041032 50 3 2.0 6.0 0.00 0.01 0.00 66 1008.3
20260503040532 50 8 2.0 6.0 0.00 0.01 0.00 70 1008.3
20260503040039 50 5 1.0 6.0 0.00 0.01 0.00 75 1008.4
20260503035532 50 358 0.0 4.0 0.00 0.01 0.01 82 1008.6
20260503035031 50 5 1.0 4.0 0.00 0.01 0.01 87 1008.6
20260503034543 50 357 0.0 0.0 0.00 0.01 0.01 91 1008.6
20260503034030 50 357 0.0 0.0 0.00 0.01 0.01 91 1008.6
20260503033529 50 357 0.0 0.0 0.00 0.01 0.01 92 1008.6
20260503033038 50 352 0.0 0.0 0.00 0.01 0.01 91 1008.7
20260503032529 50 353 0.0 0.0 0.00 0.01 0.01 91 1008.7
20260503032029 50 353 0.0 0.0 0.00 0.01 0.01 91 1008.7
20260503031536 50 353 0.0 0.0 0.00 0.01 0.01 91 1008.5
20260503031029 50 353 0.0 0.0 0.00 0.01 0.01 91 1008.5
20260503030528 50 353 0.0 0.0 0.00 0.01 0.01 91 1008.6
20260503030030 50 353 0.0 0.0 0.00 0.01 0.01 91 1008.4
20260503025528 50 219 0.0 0.0 0.00 0.01 0.01 91 1008.4
20260503025031 50 219 0.0 0.0 0.00 0.01 0.01 91 1008.5
20260503024527 50 219 0.0 0.0 0.00 0.01 0.01 91 1008.5
20260503024027 50 219 0.0 0.0 0.00 0.01 0.01 90 1008.5
20260503023527 50 219 0.0 0.0 0.00 0.01 0.01 90 1008.5
20260503023027 50 219 0.0 0.0 0.00 0.01 0.01 90 1008.5
20260503022526 50 219 0.0 0.0 0.00 0.01 0.01 90 1008.6
20260503022026 50 219 0.0 0.0 0.00 0.01 0.01 90 1008.7
20260503021531 50 219 0.0 0.0 0.00 0.01 0.01 90 1008.7
20260503021026 50 219 0.0 0.0 0.00 0.01 0.01 90 1008.7
20260503020528 50 219 0.0 0.0 0.00 0.01 0.01 90 1008.6
20260503020026 50 219 0.0 0.0 0.00 0.01 0.01 90 1008.6
20260503015525 50 219 0.0 0.0 0.00 0.01 0.01 90 1008.7
20260503015025 50 219 0.0 0.0 0.00 0.01 0.01 90 1008.7
20260503014525 50 219 0.0 0.0 0.00 0.01 0.01 89 1008.7
20260503014025 50 219 0.0 0.0 0.00 0.01 0.01 89 1008.8
20260503013525 50 219 0.0 0.0 0.00 0.01 0.01 89 1008.8
20260503013024 50 219 0.0 0.0 0.00 0.01 0.01 89 1008.8
20260503012524 50 219 0.0 0.0 0.00 0.01 0.01 89 1008.9
20260503012024 50 219 0.0 0.0 0.00 0.01 0.01 89 1008.9
20260503011522 50 219 0.0 0.0 0.00 0.01 0.01 90 1008.9
20260503011021 50 219 0.0 0.0 0.00 0.01 0.01 89 1008.9
20260503010522 50 219 0.0 0.0 0.00 0.01 0.01 89 1008.8
20260503010020 50 219 0.0 0.0 0.00 0.01 0.01 89 1008.8
20260503005519 50 219 0.0 0.0 0.00 0.01 0.01 89 1008.8
20260503005019 50 219 0.0 0.0 0.00 0.01 0.01 89 1008.7
20260503004516 50 219 0.0 0.0 0.00 0.01 0.01 90 1008.7
20260503004020 50 219 0.0 0.0 0.00 0.01 0.01 90 1008.7
20260503003513 50 219 0.0 0.0 0.00 0.01 0.01 90 1008.7
20260503003012 50 219 0.0 0.0 0.00 0.01 0.01 90 1008.6
20260503002511 50 219 0.0 0.0 0.00 0.01 0.01 90 1008.7
20260503002011 50 219 0.0 0.0 0.00 0.01 0.01 90 1008.7
20260503001511 50 219 0.0 0.0 0.00 0.01 0.01 89 1008.7
20260503001011 50 218 0.0 0.0 0.00 0.01 0.01 90 1008.6
20260503000510 50 218 0.0 0.0 0.00 0.01 0.01 90 1008.5
20260503000010 51 219 0.0 0.0 0.00 0.01 0.01 90 1008.6
20260502235510 51 219 0.0 0.0 0.00 0.01 0.01 90 1008.7
20260502235010 51 219 0.0 0.0 0.00 0.01 0.01 89 1008.7
20260502234509 51 219 0.0 0.0 0.00 0.01 0.01 89 1008.7
20260502234009 51 219 0.0 0.0 0.00 0.01 0.01 89 1008.6
20260502233508 51 218 0.0 0.0 0.00 0.01 0.01 89 1008.7
20260502233010 51 218 0.0 0.0 0.00 0.01 0.01 89 1008.7
20260502232509 51 218 0.0 0.0 0.00 0.01 0.01 89 1008.8
20260502232012 51 218 0.0 0.0 0.00 0.01 0.01 89 1008.8
20260502231515 51 218 0.0 0.0 0.00 0.01 0.01 88 1008.8
20260502231010 51 218 0.0 0.0 0.00 0.01 0.01 88 1008.7
20260502230508 51 218 0.0 0.0 0.00 0.01 0.01 88 1008.8
20260502230009 51 218 0.0 0.0 0.00 0.01 0.01 88 1008.8
20260502225507 51 218 0.0 0.0 0.00 0.01 0.01 88 1008.9
20260502225007 51 218 0.0 0.0 0.00 0.01 0.01 87 1008.8
20260502224506 51 219 0.0 0.0 0.00 0.01 0.01 87 1008.8
20260502224006 51 219 0.0 0.0 0.00 0.01 0.01 87 1008.8
20260502223508 51 219 0.0 0.0 0.00 0.01 0.01 87 1008.7
20260502223007 51 219 0.0 0.0 0.00 0.01 0.01 87 1008.8
20260502222507 51 218 0.0 0.0 0.00 0.01 0.01 87 1008.7
20260502222006 51 217 0.0 0.0 0.00 0.01 0.01 87 1008.7
20260502221506 51 217 0.0 0.0 0.00 0.01 0.01 87 1008.7
20260502221006 52 217 0.0 0.0 0.00 0.01 0.01 86 1008.7
20260502220506 51 219 0.0 1.0 0.00 0.01 0.01 86 1008.6
20260502220009 52 219 0.0 1.0 0.00 0.01 0.01 86 1008.8
20260502215506 52 176 0.0 1.0 0.00 0.01 0.01 86 1008.7
20260502215005 52 208 0.0 0.0 0.00 0.01 0.01 86 1008.8
20260502214504 52 208 0.0 2.0 0.00 0.01 0.01 86 1008.7
20260502214005 52 208 0.0 2.0 0.00 0.01 0.01 86 1008.8
20260502213504 52 230 0.0 0.0 0.00 0.01 0.01 86 1008.6
20260502213004 52 196 0.0 2.0 0.00 0.01 0.01 86 1008.7
20260502212504 52 196 0.0 2.0 0.00 0.01 0.01 86 1008.6
20260502212004 52 189 0.0 1.0 0.00 0.01 0.01 86 1008.6
20260502211507 52 190 0.0 2.0 0.00 0.01 0.01 86 1008.4
20260502211003 52 204 0.0 2.0 0.00 0.01 0.01 86 1008.4
20260502210501 52 207 0.0 0.0 0.00 0.01 0.01 86 1008.5
20260502210001 52 196 0.0 3.0 0.00 0.01 0.01 86 1008.7
20260502205500 52 230 0.0 3.0 0.00 0.01 0.01 86 1008.7
20260502205100 52 191 0.0 3.0 0.00 0.01 0.01 86 1008.7
20260502204601 52 209 0.0 2.0 0.00 0.01 0.01 86 1008.8
20260502204059 52 216 0.0 2.0 0.00 0.01 0.01 85 1008.7
20260502203558 52 199 0.0 1.0 0.00 0.01 0.01 86 1008.8